This is the latest recevied weather packets stored in our database for station/object AK4NG. If no packets are shown the sender has not sent any weather packets the latest 10 day(s).
| Time | Temp. | Humidity | Pressure | Rain* | Wind** | Luminosity | Snow |
|---|---|---|---|---|---|---|---|
| 1777686918 | 13.89° C | 97% | 1014.4 hPa | 3.05 mm | - | 0 W/m² | - |
| 1777686614 | 13.89° C | 97% | 1014.9 hPa | 1.27 mm | - | 0 W/m² | - |
| 1777686311 | 13.89° C | 97% | 1014.8 hPa | 0 mm | - | 0 W/m² | - |
| 1777686008 | 13.89° C | 97% | 1014.3 hPa | 1.78 mm | - | 0 W/m² | - |
| 1777685703 | 13.89° C | 97% | 1014.8 hPa | 1.78 mm | - | 0 W/m² | - |
| 1777685400 | 14.44° C | 97% | 1014.5 hPa | 0 mm | - | 0 W/m² | - |
| 1777685097 | 14.44° C | 97% | 1014.5 hPa | 0 mm | - | 0 W/m² | - |
| 1777684795 | 14.44° C | 97% | 1014.9 hPa | 0 mm | - | 0 W/m² | - |
| 1777684490 | 14.44° C | 98% | 1015 hPa | 0 mm | - | 0 W/m² | - |
| 1777684188 | 14.44° C | 98% | 1014.5 hPa | 0 mm | - | 0 W/m² | - |
| 1777683885 | 14.44° C | 98% | 1014.5 hPa | 1.27 mm | - | 0 W/m² | - |
| 1777683581 | 14.44° C | 98% | 1014.7 hPa | 1.27 mm | - | 0 W/m² | - |
| 1777683279 | 14.44° C | 98% | 1014.2 hPa | 1.78 mm | - | 0 W/m² | - |
| 1777682977 | 15° C | 98% | 1013.8 hPa | 1.78 mm | - | 0 W/m² | - |
| 1777682672 | 15° C | 98% | 1013.9 hPa | 1.27 mm | - | 0 W/m² | - |
| 1777682370 | 15° C | 98% | 1014 hPa | 3.05 mm | - | 0 W/m² | - |
| 1777682067 | 15° C | 97% | 1014.2 hPa | 1.78 mm | - | 0 W/m² | - |
| 1777681763 | 15° C | 97% | 1014.4 hPa | 1.27 mm | - | 0 W/m² | - |
| 1777681461 | 15° C | 97% | 1014.5 hPa | 3.05 mm | - | 1 W/m² | - |
| 1777681158 | 15° C | 97% | 1014.3 hPa | 1.78 mm | - | 1 W/m² | - |
| 1777680855 | 15° C | 97% | 1014.4 hPa | 1.27 mm | - | 1 W/m² | - |
| 1777680553 | 15° C | 97% | 1014.2 hPa | 3.05 mm | - | 3 W/m² | - |
| 1777680252 | 15° C | 97% | 1014.4 hPa | 3.56 mm | - | 4 W/m² | - |
| 1777679947 | 15° C | 97% | 1014.3 hPa | 1.78 mm | - | 5 W/m² | - |
| 1777679643 | 15° C | 97% | 1014.2 hPa | 0 mm | - | 5 W/m² | - |
* Rain latest hour (hover to see other rain measurements)
** Current wind speed in m/s (hover to see current wind gust speed)